This is the latest recevied weather packets stored in our database for station/object K9RJT. If no packets are shown the sender has not sent any weather packets the latest 10 day(s).
| Time | Temp. | Humidity | Pressure | Rain* | Wind** | Luminosity | Snow |
|---|---|---|---|---|---|---|---|
| 1777333229 | 15.56° C | 30% | 1009.9 hPa | 0 mm | - | 366 W/m² | - |
| 1777332928 | 15.56° C | 30% | 1010.2 hPa | 0 mm | - | 120 W/m² | - |
| 1777332626 | 15.56° C | 31% | 1010 hPa | 0 mm | - | 111 W/m² | - |
| 1777332322 | 16.11° C | 31% | 1010.2 hPa | 0 mm | - | 127 W/m² | - |
| 1777332018 | 15.56° C | 30% | 1009.9 hPa | 0 mm | - | 391 W/m² | - |
| 1777331717 | 15.56° C | 30% | 1009.9 hPa | 0 mm | - | 117 W/m² | - |
| 1777331413 | 15° C | 30% | 1010.1 hPa | 0 mm | - | 324 W/m² | - |
| 1777331110 | 15.56° C | 31% | 1010.1 hPa | 0 mm | - | 135 W/m² | - |
| 1777330808 | 15° C | 31% | 1010.3 hPa | 0 mm | - | 129 W/m² | - |
| 1777330504 | 15.56° C | 29% | 1009.9 hPa | 0 mm | - | 131 W/m² | - |
| 1777330202 | 16.11° C | 29% | 1010.1 hPa | 0 mm | - | 176 W/m² | - |
| 1777329900 | 16.67° C | 28% | 1010.1 hPa | 0 mm | - | 308 W/m² | - |
| 1777329598 | 15.56° C | 28% | 1010.1 hPa | 0 mm | - | 580 W/m² | - |
| 1777329296 | 15.56° C | 29% | 1010.2 hPa | 0 mm | - | 163 W/m² | - |
| 1777328993 | 17.22° C | 28% | 1010 hPa | 0 mm | - | 175 W/m² | - |
| 1777328691 | 16.11° C | 29% | 1010.2 hPa | 0 mm | - | 630 W/m² | - |
| 1777328389 | 16.11° C | 30% | 1010.3 hPa | 0 mm | - | 600 W/m² | - |
| 1777328087 | 15.56° C | 29% | 1010.2 hPa | 0 mm | - | 242 W/m² | - |
| 1777327785 | 16.11° C | 28% | 1010.2 hPa | 0 mm | - | 233 W/m² | - |
| 1777327482 | 16.11° C | 29% | 1010.4 hPa | 0 mm | - | 650 W/m² | - |
| 1777327179 | 16.11° C | 30% | 1010.3 hPa | 0 mm | - | 641 W/m² | - |
| 1777326877 | 15.56° C | 30% | 1010.3 hPa | 0 mm | - | 439 W/m² | - |
| 1777326573 | 15° C | 30% | 1010.5 hPa | 0 mm | - | 632 W/m² | - |
| 1777326271 | 15° C | 30% | 1010.4 hPa | 0 mm | - | 271 W/m² | - |
| 1777325968 | 15° C | 31% | 1010.5 hPa | 0 mm | - | 275 W/m² | - |
* Rain latest hour (hover to see other rain measurements)
** Current wind speed in m/s (hover to see current wind gust speed)